Regional Weather Roundup
Issued by NWS

Home | Current Version | Previous Version | Text Only | Print | Product List | Glossary On
Versions: 1 2 3 4 5 6 7 8 9 10 11 12 13 14 15 16 17 18 19 20 21 22 23 24 25 26 27 28 29 30 31 32 33 34 35 36 37 38 39 40 41 42 43 44 45 46 47 48 49 50
000
ASUS44 KFWD 220203
RWRTX
NORTH TEXAS HOURLY WEATHER ROUNDUP
NATIONAL WEATHER SERVICE FORT WORTH TX
900 PM CDT MON AUG 21 2017

NOTE: "FAIR" INDICATES FEW OR NO CLOUDS BELOW 12,000 FEET WITH NO
SIGNIFICANT WEATHER AND/OR OBSTRUCTIONS TO VISIBILITY.

TXZ118-119-220300-
DALLAS/FORT WORTH METROPLEX

CITY           SKY/WX    TMP DP  RH WIND       PRES   REMARKS
DFW AIRPORT    PTCLDY    88  69  53 SE9       30.01R HX  92
DALLAS LOVE    PTCLDY    89  70  53 SE14      30.02R HX  94
FTW MEACHAM    CLEAR     87  68  52 S8        30.01R HX  90
DAL-EXECUTIVE  CLEAR     85  70  60 SE6       30.03R
FTW-ALLIANCE   PTCLDY    85  68  56 S5        30.01R
FTW-NAS-JRB    CLEAR     89  66  46 S7        30.02R HX  91
FTW-SPINKS     CLEAR     82  67  61 CALM      30.04R
ARLINGTON      PTCLDY    86  72  62 SE7       30.03R HX  92
GRAND PRAIRIE  CLEAR     88  66  48 E5        30.03R HX  90
MESQUITE         N/A     82  71  69 CALM      30.04R
LANCASTER      CLEAR     86  69  56 SE6       30.04R HX  90
$$

TXZ091>094-102>105-117-120-121-131>134-220300-
NORTH CENTRAL TEXAS

CITY           SKY/WX    TMP DP  RH WIND       PRES   REMARKS
SHRMAN/DENISON CLEAR     84  72  66 SE9       30.05R HX  90
GAINESVILLE    CLEAR     81  69  67 SE7       30.05R
BOWIE          CLEAR     81  70  68 SE3       30.04R
BRIDGEPORT     CLEAR     83  69  62 S6        30.04R
DECATUR        CLEAR     85  69  58 S6          N/A
DENTON         PTCLDY    85  71  63 SE9       30.02R HX  90
MCKINNEY       CLEAR     84  75  74 SE7       30.03R HX  92
BONHAM         CLEAR     81  73  78 SE7       30.05R
ROCKWALL       CLEAR     83  73  70 SE6       30.04R
TERRELL        CLEAR     84  73  69 E6        30.05R HX  90
WAXAHACHIE     CLEAR     85  69  59 CALM      30.04R
CLEBURNE       CLEAR     84  66  54 S6        30.05R
GRANBURY       CLEAR     88  67  50 SE7       30.04R HX  91
$$

TXZ083>090-098>101-113>116-127>130-139>142-154-155-220300-
WESTERN NORTH TEXAS

CITY           SKY/WX    TMP DP  RH WIND       PRES   REMARKS
WICHITA FALLS  CLEAR     84  68  58 SE13      30.00R
WF-KICKAPOO    CLEAR     85  70  61 SE7       30.03R
VERNON         CLEAR     84  62  47 S6        30.02R
ABILENE        CLEAR     82  64  54 SE7       30.05R
BRECKENRIDGE   CLEAR     86  64  47 SE8       30.03R
CISCO          CLEAR     82  64  54 SE7       30.06R
EASTLAND       CLEAR     85  66  53 SE6       30.05R
RANGER         CLEAR     82  67  59 SE7       30.05R
MINERAL WELLS  CLEAR     82  67  60 SE6       30.01R
STEPHENVILLE   CLEAR     82  67  59 SE5       30.08R
COMANCHE       CLEAR     84  65  52 SE7       30.06R
BROWNWOOD      PTCLDY    84  63  48 SE6       30.05R
COLEMAN        CLEAR     85  60  42 SE7       30.06R
$$

TXZ143>147-156>162-174-175-220300-
CENTRAL TEXAS

CITY           SKY/WX    TMP DP  RH WIND       PRES   REMARKS
WACO           CLEAR     86  67  52 SE6       30.02R
WACO-TSTC      CLEAR     84  66  54 S3        30.02R
WACO-MCGREGOR  CLEAR     86  65  49 SE3       30.03R
HILLSBORO      PTCLDY    86  68  54 E6        30.03R
CORSICANA        N/A     85  73  67 E6        30.04R HX  91
MEXIA          CLEAR     85  69  57 E7        30.03R
HEARNE         CLEAR     87  71  58 SE7       30.04R HX  92
CAMERON        CLEAR     87  70  56 SE7       30.03R HX  92
TEMPLE         CLEAR     86  67  52 SE6       30.03R
KILLEEN        CLEAR     85  65  51 CALM      30.03R
KILLEEN-SKYLRK CLEAR     87  68  52 SE6       30.04R HX  90
FORT HOOD      CLEAR     87  65  47 SE3       30.01R
HAMILTON       CLEAR     84  64  50 SE7       30.06R
LAMPASAS       CLEAR     84  67  54 CALM      30.04R
$$

TXZ095>097-106>112-122>126-135>138-148>153-164>167-220300-
EAST TEXAS

CITY           SKY/WX    TMP DP  RH WIND       PRES   REMARKS
PARIS          CLEAR     80  75  84 SE7       30.06R
SULPHUR SPRNGS CLEAR     83  74  72 SE5       30.07R HX  90
MOUNT PLEASANT CLEAR     82  75  79 SE3       30.07S
GILMER         CLEAR     81  76  84 CALM      30.07R
MINEOLA        CLEAR     81  77  89 E5        30.06R
TYLER          CLEAR     82  76  81 SE6       30.06R
LONGVIEW       CLEAR     82  74  76 SE5       30.06R
MARSHALL         N/A     77  73  87 CALM      30.09R
ATHENS         CLEAR     81  72  74 CALM      30.04R
PALESTINE      CLEAR     85  73  69 E6        30.06R HX  91
JACKSONVILLE   CLEAR     83  74  74 CALM      30.10R
HENDERSON      CLEAR     78  74  88 CALM      30.08R
CENTER         CLEAR     82  79  89 CALM      30.09R HX  93
NACOGDOCHES    CLEAR     80  75  84 CALM      30.08R
LUFKIN         CLEAR     82  73  74 CALM      30.07R
$$

SUPPLEMENTAL OBSERVATIONS (NWS FORT WORTH AREA)

CITY           SKY/WX    TMP DP  RH WIND       PRES   REMARKS
$$

SUPPLEMENTAL OBSERVATIONS (NWS NORMAN AREA)

CITY           SKY/WX    TMP DP  RH WIND       PRES   REMARKS
GOODLETT         N/A     82  65  57 W16       30.04R
ODELL            N/A     84  65  53 SE7       30.03R
CROWELL          N/A     84  66  54 SE8       30.03R
KNOX CITY        N/A     85  60  42 SE8       30.03R
SEYMOUR          N/A     85  63  46 SE6       30.02R
$$

SUPPLEMENTAL OBSERVATIONS (NWS SAN ANGELO AREA)

CITY           SKY/WX    TMP DP  RH WIND       PRES   REMARKS
WEINERT          N/A     84  61  45 S6        30.03R
HASKELL          N/A     86  55  34 SE6       30.03R
THROCKMORTON     N/A     84  66  53 SE7       30.03R
STAMFORD         N/A     86  62  44 SE7       30.04R
$$

SUPPLEMENTAL OBSERVATIONS (NWS SHREVEPORT AREA)

CITY           SKY/WX    TMP DP  RH WIND       PRES   REMARKS
$$

SUPPLEMENTAL OBSERVATIONS ARE A COLLECTION OF AUTOMATED INSTRUMENTS
THAT ARE MAINTAINED BY A VARIETY OF FEDERAL AND STATE AGENCIES.
CERTAIN ELEMENTS...SUCH AS HUMIDITY VALUES AND SUSTAINED WIND
SPEEDS...MAY BE APPROXIMATED.





USA.gov is the U.S. government's official web portal to all federal, state and local government web resources and services.